Torna al catalogo

STARLINK-36276

AttivoComunicazioniVLEO
NORAD 67852·PAYLOAD·🇺🇸 United States

Lanciato Feb 20, 2026 da Vandenberg Space Force Base

Loading…

Prossimi Passaggi (prossime 24 ore)

TLE

AggiornatoSource: CelesTrak SupGP

Epoca: Sep 15, 2026, 03:23 UTC

1 67852C 26034C   26258.14145833  .00001756  00000+0  51887-4 0  2584
2 67852  53.1596  42.7650 0001212  87.9114 251.7956 15.34381648    18

Traccia STARLINK-36276 in tempo reale con AllMySat

Download on the App Store